Preview of NWS' New Version of Forecast
This preview is not operational and should not be used for support decisions.

Regional Weather Roundup (RWR)

Issued by National Weather Service (NWS)

                            
000
ASCA42 TJSJ 200510
RWRPR 
PUERTO RICO/U.S. VIRGIN ISLANDS HOURLY WEATHER ROUNDUP
NATIONAL WEATHER SERVICE SAN JUAN PR
100 AM AST SAT APR 20 2019

PRZ001>002-007>008-010-200600-
PUERTO RICO
  
CITY           SKY/WX    TMP DP  RH WIND       PRES   REMARKS
SAN JUAN LMM   PTCLDY    77  68  73 E7        30.06F                  
AGUADILLA      CLEAR     72  64  78 SE7       30.06F                  
CEIBA          PTCLDY    81  68  65 MISG      30.07F                  
$$

VIZ001>002-200600-
U.S. VIRGIN ISLANDS
  
CITY           SKY/WX    TMP DP  RH WIND       PRES   REMARKS
CHARLOTTE AMA  CLEAR     79  66  65 E14       30.04F                  
CHRISTIANSTED  PTCLDY    77  66  69 E14G23    30.05F                  
$$

HOURLY WEATHER ROUNDUP FOR THE NEWS MEDIA
  
CITY           SKY/WX    TMP DP  RH WIND       PRES   REMARKS
ORLANDO        FAIR      65  52  62 W14       29.88S                  
NEW YORK       LGT RAIN  57  57 100 S21G26    29.75F VSB 1/2          
NEWARK         RAIN      67  65  93 S12       29.70F                  
CHICAGO        FAIR      43  26  51 N17       29.84F                  
HARTFORD       LGT RAIN  62  62 100 S23G37    29.83F                  
BOSTON         LGT RAIN  67  62  84 S25G40    29.80F                  
DALLAS         CLEAR     54  43  66 CALM      30.05F                  
PHILADELPHIA   LGT RAIN  66  64  93 SE12      29.68                   
LOS ANGELES    CLOUDY    57  53  86 W7        29.94R FOG              
WASHINGTON DC  CLOUDY    67  62  84 SE14G21   29.58R